Regional Weather Roundup
Issued by NWS

Home | Current Version | Previous Version | Text Only | Print | Product List | Glossary Off
Versions: 1 2 3 4 5 6 7 8 9 10 11 12 13 14 15 16 17 18 19 20 21 22 23 24 25 26 27 28 29 30 31 32 33 34 35 36 37 38 39 40 41 42 43 44 45 46 47 48 49 50

000
ASUS43 KMKX 251500
RWRWI

WISCONSIN REGIONAL WEATHER ROUNDUP
NATIONAL WEATHER SERVICE MILWAUKEE/SULLIVAN WI
1000 AM CDT MON SEP 25 2017

NOTE: "FAIR" INDICATES FEW OR NO CLOUDS BELOW 12,000 FEET WITH NO
SIGNIFICANT WEATHER AND/OR OBSTRUCTIONS TO VISIBILITY.

WIZ001-002-006>008-014>016-023>028-251600-
NORTHWEST WISCONSIN

CITY           SKY/WX    TMP DP  RH WIND       PRES   REMARKS
SUPERIOR ARPT  LGT RAIN  56  55  97 NW5       30.01R
ASHLAND        CLOUDY    63  60  90 NW6       29.99R
HAYWARD        CLOUDY    64  61  90 VRB5      30.00R
SIREN          CLOUDY    59  58  95 N7        30.01R
CUMBERLAND     CLOUDY    63  61  94 NW5       30.00R
RICE LAKE      CLOUDY    67  65  94 CALM      30.00R
CHETEK         PTSUNNY   70  66  86 CALM      29.99R
LADYSMITH      MOSUNNY   69  66  89 E3        30.00S
EAU CLAIRE     NOT AVBL
MENOMONIE      MOSUNNY   71  66  84 W3        29.98S
NEW RICHMOND   CLOUDY    61  60  97 NW8       30.00S
OSCEOLA        CLOUDY    60  60 100 NW7       30.03S
$$

WIZ003>005-009-010-017-018-251600-
NORTH CENTRAL WISCONSIN

CITY           SKY/WX    TMP DP  RH WIND       PRES   REMARKS
MANITOWISH WTR NOT AVBL
ARBOR VITAE    MOSUNNY   72  65  78 W5        30.01S
WOODRUFF       MOSUNNY   72  65  78 W5        30.01S
RHINELANDER    SUNNY     74  64  71 W5        30.02S
EAGLE RIVER    SUNNY     72  61  68 SW3       30.01S
LAND O LAKES   SUNNY     72  62  71 W3        30.02S
PHILLIPS       CLOUDY    69  66  89 NE3       29.99F
TOMAHAWK       SUNNY     70  62  75 CALM      30.01S
MEDFORD        PTSUNNY   71  63  76 CALM      30.00S
MERRILL        SUNNY     71  63  76 CALM      30.01R
$$

WIZ029-030-035-036-043>047-251600-
CENTRAL WISCONSIN

CITY           SKY/WX    TMP DP  RH WIND       PRES   REMARKS
WAUSAU         MOSUNNY   73  63  70 S6        29.98F
MOSINEE        MOSUNNY   72  64  78 S5        30.01S
MARSHFIELD     SUNNY     75  62  64 S5        29.98F
STEVENS POINT  MOSUNNY   73  62  67 CALM      30.00S
WAUPACA        SUNNY     76  65  67 CALM      30.00R
WAUTOMA        MOSUNNY   75  64  68 CALM      29.99F
WISC RAPIDS    MOSUNNY   77  64  64 SW5       30.00S
CAMP DOUGLAS   NOT AVBL
$$

WIZ011>013-019>022-031-037>040-048>050-251600-
NORTHEAST WISCONSIN

CITY           SKY/WX    TMP DP  RH WIND       PRES   REMARKS
ANTIGO         SUNNY     71  63  76 CALM      30.02S
SHAWANO        MOSUNNY   76  64  65 CALM      29.99S
OCONTO         MOSUNNY   74  63  69 CALM      29.99S
STURGEON BAY   PTSUNNY   77  63  61 S7        30.01S
GREEN BAY      MOSUNNY   77  65  66 VRB5      29.99S
MANITOWOC      CLOUDY    73  65  75 E3        30.01S
APPLETON       PTSUNNY   75  61  60 S6        29.99S
CLINTONVILLE   SUNNY     73  63  68 SW3       29.99F
OSHKOSH        MOSUNNY   78  64  61 S6        29.99S HX  80
$$

WIZ032>034-041-042-053>061-251600-
SOUTHWEST WISCONSIN

CITY           SKY/WX    TMP DP  RH WIND       PRES   REMARKS
LA CROSSE      MOSUNNY   77  64  64 SW7       29.95S
SPARTA         SUNNY     76  64  65 SW3       29.97S
VIROQUA        MOSUNNY   75  65  69 S7        30.00R
BOSCOBEL       SUNNY     78  64  61 VRB3      29.97F HX  80
PRAIRIE DU CHI MOSUNNY   73  62  68 CALM      29.97S
PLATTEVILLE    SUNNY     78  66  65 S5        30.00S HX  80
$$

WIZ056-057-062-063-064-067-068-251600-
SOUTH CENTRAL WISCONSIN

CITY           SKY/WX    TMP DP  RH WIND       PRES   REMARKS
REEDSBURG      SUNNY     77  63  62 S7        29.99S
BARABOO/DELLS  SUNNY     77  60  56 SW3       29.99S
LONE ROCK      NOT AVBL
MINERAL POINT  SUNNY     77  64  65 S3        30.01S
MADISON        MOSUNNY   77  63  61 S5        29.99F
MIDDLETON      SUNNY     79  62  55 CALM      30.00F HX  80
WATERTOWN      SUNNY     77  63  61 S3        30.01S
MONROE         SUNNY     77  61  57 S3        30.00F
JANESVILLE     MOSUNNY   77  61  57 S3        30.00F
$$

WIZ051-052-058>065-066-070>072-251600-
SOUTHEAST WISCONSIN

CITY           SKY/WX    TMP DP  RH WIND       PRES   REMARKS
MILWAUKEE      MOSUNNY   83  62  49 S5        30.01S HX  84
WAUKESHA       MOSUNNY   75  61  60 SW5       30.03S
MILWAUKEE/TIMM MOSUNNY   81  55  41 S5        30.01F HX  80
RACINE         SUNNY     78  64  61 SE8       30.03S HX  80
BURLINGTON     SUNNY     78  64  60 SW3       30.01S HX  80
KENOSHA        SUNNY     82  62  50 S3        30.02S HX  83
FOND DU LAC    SUNNY     79  59  50 SW8       30.00S HX  80
SHEBOYGAN      MOSUNNY   81  67  62 S5        30.00F HX  83
WEST BEND        N/A     77  63  61 CALM      30.01S
JUNEAU         SUNNY     74  62  64 S5        30.02S
$$

LSZ147-162-251600-
LAKE SUPERIOR

STATION/POSITION TIME  TEMP    WIND        PRES    WAVE
                       AIR SEA DIR/SP/G            HT/PER
                 (UTC) (F)     (DEG/KT/KT) (MB)    (FT/S)
W MID LAKE BUOY  1350   59 56  270/  6/  8 1013.5R   1
DEVILS ISLAND    1400   61     260/  8/ 10 1015.2R
PORT WING        1340   62     270/  8/ 10 1015.6R
SAXON HARBOR     1440   64     340/  5/  7 1014.9S
$$

LMZ867-665-643>646-251600-
LAKE MICHIGAN

STATION/POSITION TIME  TEMP    WIND        PRES    WAVE
                       AIR SEA DIR/SP/G            HT/PER
                 (UTC) (F)     (DEG/KT/KT) (MB)    (FT/S)
S GREEN BAY BUOY 1430   71 69  190/  4/  6 1015.4R
N MID LAKE BUOY  1350   69 67  190/ 12/ 14 1016.2R   1/ 3
NORTHPORT PIER   1440   71     150/  5/ 10 1015.6S
KEWAUNEE LAKESHO 1424   65     160/  6/  7 1015.3
SHEBOYGAN LAKESH 1400   71     170/  8/  9 1015.5S
PORT WASHINGTON  1440   73     130/  3/  4 1016.9S
ATWATER BUOY     1309   69 65  150/  4/  6 1016.2F
MILWAUKEE LAKESH 1430   70     170/  2/  3   N/A
S MID LAKE BUOY  1350   72 71  160/  8/ 10 1016.7R   1
KENOSHA   LAKESH 1400   71     150/  8/  8 1016.3
$$

TC  - TEMPERATURE IN CELSIUS
VSB - VISIBILITY IN STATUTE MILES
WCI - WIND CHILL INDEX
HX  - HEAT INDEX





USA.gov is the U.S. government's official web portal to all federal, state and local government web resources and services.